Погода в Миноте

США     48°13′57″N   101°17′44″W
темп.,
°C
ветер,
м/с
пор.,
м/с
влажн.,
%
обл.,
%
осадки,
мм/ч
давл.,
гПа
погр.,
м
16 октября, сб
сб1601:00+5зюз410570 0.0 1016154
04:00+5зюз511550 0.0 1016168
07:00+4з49630 0.0 1016151
10:00+8з49560 0.0 1017252
13:00+14зсз46390 0.0 1016698
16:00+17з56300 0.0 10161141
19:00+12зюз45495 0.0 101645
22:00+10юз3355100 0.0 101732
17 октября, вс
вс1701:00+10юз356215 0.0 101671
04:00+9ююз48670 0.0 1015120
07:00+9ююз49620 0.0 1013133
10:00+13юз39540 0.0 1012247
13:00+20юз58335 0.0 1010498
16:00+22ююз68315 0.0 1008712
19:00+16ю45465 0.0 100760
22:00+14ю411565 0.0 1008175
18 октября, пн
пн1801:00+12ю48560 0.0 1007129
04:00+10ююв33580 0.0 100539
07:00+10ю35595 0.0 100456
10:00+13ю255197 0.0 1003129
13:00+19ю353367 0.0 1001505
16:00+21ююз4531100 0.0 1001901
19:00+16зюз2244100 0.0 100211
22:00+14з2248100 0.0 100314
19 октября, вт
вт1901:00+12ссз345693 0.0 100563
04:00+10ссз613605 0.0 1008305
07:00+8с8147812 0.0 1012568
10:00+7ссв81276100 0.0 1016868
13:00+7ссв81072100 0.0 1019991
16:00+8ссв71062100 0.0 10191066
19:00+8ссв71154100 0.0 1021962
22:00+6ссв71255100 0.0 1023825
20 октября, ср
ср2001:00+3ссв61169100 0.0 1025721
04:00+3ссв61174100 0.0 1025657
07:00+2ссв61076100 0.0 1026665
10:00+2ссв6970100 0.0 1027598
13:00+4ссв675299 0.0 1026745
16:00+6ссв5644100 0.0 1024882
19:00+4с335491 0.0 102536
22:00+2всв33585 0.0 102759